Location: Madrid
(40.4000°N, 3.6830°W)
Time: 13:14:08
(UTC+01:00)

ISS - Pass Details

Date: 08 December 2019
Orbit: 411 x 421 km, 51.6° (Epoch: 11 December)

Event Time Altitude Azimuth Distance (km) Brightness Sun altitude
Rises 18:23:02 0° 312° (NW) 2,358 0.4 -6.8°
Reaches altitude 10° 18:25:23 10° 326° (NNW) 1,495 -0.8 -7.2°
Maximum altitude 18:28:13 25° 24° (NNE) 895 -2.5 -7.7°
Enters shadow 18:31:00 10° 81° (E) 1,482 -1.6 -8.2°
